[[{"header":{"parameterUnit":"m.s-1","parameterCategory":1,"la1":30.2991,"la2":30.254,"lo1":-89.0895,"lo2":-89.0444,"dy":0.0017,"dx":0.0017,"nx":28,"ny":28,"refTime":"2025-07-08T09:00:00:Z","depth":0,"parameterNumber":2,"parameterNumberName":"U-component_of_WINDS"},"data":[0,0,0,0,0,0,0,0,0,0,0,0,0,0,0,0,0,0,0,0,0,0,0,0,0,0,0,0,0,0,0,0,0,0,0,0,0,0,0,0,0,0,0,0,0,0,0,0,0,0,0,0,0,0,0,0,0,0,2.7904,2.7905,0,2.7949,2.795,2.795,2.7929,2.7928,2.7926,2.7925,2.7971,2.7974,2.7976,0,0,0,0,0,0,0,0,0,0,0,0,0,2.7798,2.78,2.7904,2.7905,2.7905,2.7949,2.795,2.7951,2.7929,2.7928,2.7926,2.7925,2.7971,2.7973,2.7976,0,0,0,0,0,0,0,0,0,0,0,0,0,2.7843,2.78,2.7904,2.79,2.79,2.7949,2.795,2.7951,2.7929,2.7927,2.7926,2.7924,2.797,2.7973,2.7976,2.8032,0,0,2.7987,2.7988,0,0,0,0,0,0,0,0,2.7841,2.7847,2.79,2.79,2.79,2.7932,2.7929,2.7978,2.793,2.7918,2.7925,2.7923,2.796,2.7964,2.7976,2.8035,2.8037,2.7987,2.7989,2.7991,2.7992,0,0,0,0,0,0,0,2.7838,2.7845,2.7922,2.7901,2.7901,2.7895,2.79,2.7938,2.7948,2.7919,2.7917,2.7923,2.7959,2.7973,2.7977,2.8037,2.7987,2.799,2.7992,2.7994,2.8142,2.8143,0,0,0,0,0,0,2.7835,2.7843,2.7921,2.7923,2.7866,2.7898,2.7904,2.7923,2.7947,2.7949,2.7925,2.7922,2.7968,2.7973,2.7978,2.8044,2.7991,2.7994,2.7996,2.814,2.8142,2.8144,0,0,0,0,0,0,2.7833,2.7842,2.7919,2.7883,2.7892,2.7902,2.7924,2.7925,2.7938,2.7952,2.7953,2.7937,2.7966,2.7974,2.8019,2.8045,2.7996,2.7999,2.8138,2.814,2.8143,2.8176,0,0,0,0,0,0,2.783,2.7841,2.7863,2.7883,2.7894,2.7959,2.7926,2.7927,2.7945,2.7942,2.7963,2.7965,2.7966,2.8014,2.8022,2.8049,2.8001,2.8135,2.8139,2.8142,2.8172,2.8179,2.8185,0,0,0,0,0,2.7826,2.7871,2.7864,2.7874,2.7922,2.796,2.7966,2.7966,2.7947,2.7968,2.7977,2.7965,2.8041,2.8018,2.8028,2.8056,2.8134,2.8138,2.8142,2.817,2.8178,2.8185,0,0,0,0,0,0,2.7854,2.7874,2.7866,2.792,2.7938,2.7957,2.7984,2.7975,2.8,2.7996,2.7995,2.8,2.8046,2.8056,2.803,2.811,2.8084,2.8091,2.8102,2.811,2.8117,2.8113,2.8004,0,0,0,0,0,2.7866,2.7896,2.7912,2.7957,2.7967,2.7974,2.7991,2.7989,2.8008,2.8016,2.8028,2.8047,2.8075,2.8093,2.812,2.8174,2.8177,2.8198,2.8205,2.821,2.8215,2.8242,2.8251,2.8158,2.8158,2.8158,0,0,2.7892,2.7906,2.7926,2.7963,2.7977,2.8008,2.7981,2.8015,2.8037,2.8021,2.8064,2.8073,2.8094,2.8143,2.8166,2.8153,2.8241,2.8215,2.8219,2.8221,2.8247,2.8256,2.8264,2.8161,2.816,2.816,0,0,2.7954,2.7969,2.8007,2.8022,2.8044,2.8048,2.8057,2.8076,2.8082,2.8125,2.8113,2.8139,2.8188,2.8203,2.8217,2.8283,2.8272,2.8292,2.8325,2.8352,2.8359,2.8366,2.8387,2.8395,2.8297,2.8297,2.8297,0,2.7983,2.8029,2.8028,2.8062,2.8078,2.8065,2.8103,2.8118,2.8147,2.8158,2.8144,2.8203,2.8217,2.8268,2.8284,2.8297,2.8306,2.8289,2.8358,2.8365,2.8371,2.8391,2.84,2.83,2.8299,2.8299,2.8299,0,2.8062,2.8094,2.8122,2.8151,2.817,2.8206,2.821,2.823,2.8226,2.8231,2.8274,2.829,2.8318,2.8331,2.8328,2.8381,2.8372,2.8358,2.8332,2.8382,2.8401,2.8409,2.8303,2.8302,2.8301,2.8301,0,0,2.8143,2.8169,2.818,2.8191,2.8214,2.8239,2.8274,2.8301,2.8317,2.8338,2.8366,2.8408,2.8394,2.841,2.8408,2.8432,2.8481,2.8415,2.8415,2.8425,2.8538,2.8547,2.8557,2.8474,2.8476,2.8477,2.8536,0,2.8205,2.8266,2.8266,2.8322,2.835,2.8338,2.8368,2.8385,2.8391,2.8415,2.8421,2.845,2.8431,2.844,2.8463,2.847,2.8503,2.8466,2.8499,2.85,2.8492,2.8567,2.8577,2.8632,2.8543,2.8545,2.8546,0,2.8285,2.8308,2.8367,2.8384,2.8396,2.8423,2.8447,2.8471,2.849,2.8492,2.8509,2.8504,2.8538,2.8511,2.8558,2.8532,2.8546,2.8551,2.8553,2.8555,2.8525,2.8569,2.865,2.8657,2.8558,2.8557,2.8556,0,2.8335,2.8381,2.8421,2.8432,2.8454,2.8473,2.8483,2.8499,2.8515,2.8537,2.8547,2.8573,2.8586,2.8605,2.8606,2.8587,2.8652,2.8626,2.8654,2.8654,2.8667,2.8666,2.8749,2.8679,2.8679,2.8678,2.8678,0,2.8403,2.8439,2.8444,2.8469,2.8508,2.8507,2.8546,2.8554,2.8569,2.8594,2.8586,2.8609,2.861,2.8634,2.8635,2.8672,2.8679,2.8681,2.868,2.868,2.868,2.8688,2.8684,2.8681,2.868,2.868,2.8679,0,2.8465,2.847,2.8513,2.853,2.8535,2.8563,2.8577,2.86,2.8605,2.8637,2.8644,2.8652,2.8679,2.8682,2.8715,2.8715,2.8759,2.8756,2.8753,2.8752,2.8778,2.8775,2.8869,2.888,2.8804,2.8805,2.8805,0,2.8508,2.8535,2.8554,2.8571,2.8581,2.8608,2.8624,2.8625,2.8642,2.8664,2.8684,2.8711,2.8732,2.8777,2.8784,2.8809,2.8804,2.8836,2.8808,2.8807,2.8803,2.88,2.8802,2.884,2.8841,2.8842,2.8842,0,2.8581,2.8582,2.8606,2.8631,2.865,2.867,2.8688,2.8702,2.8704,2.8723,2.8751,2.8768,2.8801,2.8827,2.885,2.886,2.8851,2.8851,2.8858,2.8858,2.8855,2.8855,2.8766,2.8849,2.8848,2.8848,2.8847,2.8847,2.8633,2.8656,2.8673,2.87,2.8713,2.873,2.8752,2.8759,2.8783,2.881,2.8808,2.8839,2.8855,2.8886,2.8897,2.892,2.8909,2.8921,2.8923,2.8925,2.8927,2.8852,2.8924,2.8924,2.8924,2.8924,2.8924,0,2.8705,2.8715,2.874,2.8765,2.8785,2.8776,2.8795,2.8813,2.884,2.8856,2.8877,2.8908,2.8933,2.8943,2.8967,2.8984,2.898,2.899,2.8988,2.8989,2.8936,2.8926,2.8992,2.8992,2.8992,2.8992,2.8992,2.8992,2.8744,2.8782,2.8785,2.8828,2.8838,2.8868,2.888,2.8895,2.8907,2.8943,2.8963,2.897,2.8982,2.9007,2.9029,2.9031,2.904,2.9051,2.9051,2.9,2.8994,2.8987,2.8978,2.9053,2.9053,2.9102,2.9103,2.9103]},{"header":{"parameterUnit":"m.s-1","parameterCategory":1,"la1":30.2991,"la2":30.254,"lo1":-89.0895,"lo2":-89.0444,"dy":0.0017,"dx":0.0017,"nx":28,"ny":28,"refTime":"2025-07-08T09:00:00:Z","depth":0,"parameterNumber":3,"parameterNumberName":"V-component_of_WINDS"},"data":[0,0,0,0,0,0,0,0,0,0,0,0,0,0,0,0,0,0,0,0,0,0,0,0,0,0,0,0,0,0,0,0,0,0,0,0,0,0,0,0,0,0,0,0,0,0,0,0,0,0,0,0,0,0,0,0,0,0,3.5287,3.5288,0,3.5385,3.5386,3.5387,3.5428,3.5427,3.5427,3.5427,3.5522,3.5524,3.5527,0,0,0,0,0,0,0,0,0,0,0,0,0,3.5125,3.5128,3.5287,3.5288,3.5289,3.5385,3.5386,3.5388,3.5428,3.5427,3.5427,3.5427,3.5521,3.5524,3.5527,0,0,0,0,0,0,0,0,0,0,0,0,0,3.5207,3.5129,3.5287,3.5321,3.5325,3.5385,3.5386,3.5388,3.5428,3.5427,3.5427,3.5427,3.552,3.5524,3.5528,3.5559,0,0,3.554,3.5542,0,0,0,0,0,0,0,0,3.5202,3.5212,3.5315,3.5319,3.5323,3.5394,3.5364,3.5445,3.5428,3.5388,3.5427,3.5427,3.5479,3.5486,3.5505,3.5563,3.5567,3.554,3.5543,3.5545,3.5546,0,0,0,0,0,0,0,3.5196,3.5208,3.5326,3.5316,3.5321,3.5328,3.534,3.538,3.5434,3.5392,3.5395,3.5406,3.5481,3.5501,3.5508,3.5569,3.554,3.5544,3.5546,3.5548,3.5652,3.5652,0,0,0,0,0,0,3.5186,3.5203,3.5323,3.5329,3.5261,3.5332,3.5344,3.5371,3.5434,3.5443,3.5407,3.5408,3.5494,3.5503,3.5511,3.555,3.5545,3.5548,3.5551,3.5652,3.5652,3.5652,0,0,0,0,0,0,3.5182,3.5196,3.5319,3.5267,3.5283,3.5335,3.5365,3.5374,3.5394,3.5445,3.5454,3.5418,3.5495,3.5506,3.5546,3.5553,3.555,3.5554,3.5651,3.5652,3.5652,3.5628,0,0,0,0,0,0,3.5178,3.5195,3.521,3.5267,3.5286,3.5355,3.5366,3.5376,3.5401,3.5404,3.5458,3.5466,3.5495,3.554,3.555,3.5559,3.5557,3.5651,3.5652,3.5652,3.5628,3.5627,3.5627,0,0,0,0,0,3.5172,3.5198,3.521,3.5224,3.5306,3.5355,3.5365,3.54,3.5402,3.5415,3.5447,3.5465,3.5551,3.5544,3.5556,3.5566,3.5651,3.5651,3.5652,3.5628,3.5627,3.5627,0,0,0,0,0,0,3.514,3.5207,3.5221,3.5267,3.5305,3.5362,3.5381,3.5398,3.5435,3.5436,3.5475,3.5486,3.5523,3.5548,3.5539,3.5597,3.5602,3.5605,3.5579,3.5579,3.5578,3.5571,3.556,0,0,0,0,0,3.5138,3.5175,3.5231,3.5266,3.5284,3.5329,3.5352,3.5374,3.5415,3.543,3.5466,3.5502,3.5537,3.5559,3.5594,3.5631,3.5642,3.5643,3.5643,3.5642,3.5644,3.5662,3.5663,3.5655,3.5655,3.5655,0,0,3.5136,3.5177,3.5197,3.5261,3.5293,3.5327,3.5342,3.5379,3.5403,3.5435,3.5476,3.5502,3.5545,3.5583,3.5601,3.5605,3.5648,3.5643,3.5642,3.5645,3.5663,3.5663,3.5664,3.5655,3.5655,3.5655,0,0,3.5148,3.5184,3.5216,3.5247,3.5296,3.5324,3.5331,3.5384,3.5404,3.5445,3.5468,3.5497,3.5557,3.5586,3.5608,3.5625,3.5641,3.5635,3.5632,3.5648,3.5649,3.565,3.5654,3.5655,3.5637,3.5637,3.5637,0,3.5138,3.5194,3.523,3.5264,3.529,3.532,3.5351,3.5379,3.5435,3.545,3.5454,3.5528,3.5559,3.5602,3.5606,3.5624,3.5631,3.563,3.5646,3.5647,3.5649,3.5653,3.5655,3.5636,3.5636,3.5636,3.5636,0,3.5177,3.5214,3.5234,3.5289,3.5316,3.5348,3.5386,3.5409,3.5428,3.5455,3.5494,3.5531,3.5573,3.5585,3.5604,3.563,3.563,3.5639,3.5645,3.5648,3.5652,3.5655,3.5634,3.5635,3.5635,3.5635,0,0,3.5176,3.5247,3.5254,3.5277,3.533,3.5359,3.5389,3.5432,3.5449,3.5485,3.5511,3.5559,3.5566,3.5592,3.5613,3.5628,3.5636,3.5635,3.5637,3.5633,3.5664,3.5656,3.5658,3.5646,3.5647,3.5647,3.566,0,3.5195,3.5255,3.5287,3.5332,3.5365,3.5391,3.5418,3.5452,3.5476,3.5505,3.5531,3.5564,3.5573,3.5588,3.5604,3.5632,3.5643,3.5631,3.5668,3.5669,3.5657,3.5661,3.5654,3.5664,3.5662,3.5662,3.5663,0,3.5226,3.5262,3.5311,3.5357,3.5372,3.5396,3.5434,3.5463,3.5499,3.5516,3.5542,3.5562,3.5592,3.5595,3.5635,3.5627,3.5643,3.5658,3.5659,3.5664,3.5666,3.5665,3.5669,3.567,3.5666,3.5666,3.5666,0,3.5218,3.5279,3.5315,3.5334,3.5389,3.5405,3.5428,3.5464,3.5486,3.5519,3.5532,3.5567,3.5586,3.5611,3.5639,3.5639,3.5676,3.5681,3.5688,3.5687,3.5696,3.5695,3.5701,3.5706,3.5706,3.5706,3.5706,0,3.5236,3.5264,3.5312,3.5334,3.5365,3.5399,3.5428,3.5452,3.5484,3.5509,3.5533,3.5556,3.5591,3.5617,3.5639,3.5667,3.5676,3.5688,3.5693,3.5686,3.5684,3.5698,3.5697,3.5707,3.5707,3.5707,3.5707,0,3.5233,3.5267,3.5308,3.5355,3.5367,3.5388,3.5427,3.5448,3.5472,3.5503,3.5512,3.555,3.5581,3.5611,3.5653,3.5667,3.5695,3.5703,3.5684,3.5686,3.5691,3.569,3.5706,3.5709,3.5713,3.5712,3.5712,0,3.5242,3.5265,3.5314,3.5333,3.5356,3.5386,3.5408,3.544,3.5461,3.5502,3.5517,3.555,3.5579,3.5627,3.5656,3.5687,3.5695,3.5698,3.57,3.569,3.5693,3.5692,3.5693,3.5698,3.5697,3.5697,3.5697,0,3.5255,3.5269,3.5301,3.5337,3.5362,3.5392,3.5423,3.5436,3.5473,3.5495,3.5528,3.5549,3.5591,3.5622,3.5656,3.5677,3.5692,3.5696,3.5699,3.5692,3.5679,3.5685,3.5681,3.5696,3.5696,3.5696,3.5696,3.5696,3.5258,3.5277,3.5314,3.5347,3.5373,3.54,3.5421,3.5447,3.5476,3.5513,3.5529,3.5561,3.5593,3.564,3.566,3.5683,3.5687,3.5692,3.5693,3.5694,3.5691,3.5675,3.5689,3.5689,3.5689,3.5689,3.569,0,3.527,3.5294,3.5324,3.5366,3.539,3.5403,3.5436,3.5455,3.5484,3.5513,3.554,3.5575,3.5604,3.5635,3.5665,3.5678,3.5685,3.5685,3.5684,3.5688,3.5687,3.5681,3.5678,3.5678,3.5678,3.5678,3.5678,3.5678,3.5279,3.5313,3.5331,3.5375,3.5399,3.5431,3.5449,3.5472,3.5495,3.5534,3.5559,3.5578,3.5607,3.5639,3.5665,3.5673,3.5683,3.568,3.5689,3.5688,3.5689,3.5689,3.5684,3.5682,3.5682,3.5689,3.5689,3.5689]}]]